Wind_Speed
12 14 17 16 19 16 10 9 12 13 12 14 17 19 17 26 29 22 23 22 23 26 26 29 28 27 28 29 29 30 31 32 35 37 40 44 45 44 43 42 41 37 34 32
13 17 16 16 16 15 12 13 13 6 9 14 15 21 21 25 33 24 23 24 24 30 30 29 27 28 29 30 30 31 31 32 34 38 42 45 44 44 41 40 38 36 33 31
19 8 12 12 15 13 14 13 12 12 9 15 17 24 25 22 27 28 22 24 26 27 29 28 26 28 30 31 31 31 31 33 34 38 43 44 43 41 39 37 34 32 29 30
18 15 11 12 15 13 15 14 13 11 11 14 10 20 15 13 19 22 18 22 24 23 28 28 26 28 29 30 30 30 31 32 35 38 42 42 41 39 36 33 30 29 29 30
13 14 13 14 15 14 16 14 10 13 16 19 18 13 14 11 12 18 17 17 18 21 26 26 27 27 29 29 29 29 30 31 35 40 41 41 39 37 34 31 28 28 29 31
15 11 9 12 18 15 14 14 12 13 15 19 24 21 16 7 6 8 10 12 14 16 19 23 25 27 26 27 28 28 29 31 36 39 41 39 37 34 30 27 26 27 29 30
14 14 13 15 9 13 12 10 14 12 11 13 4 5 18 9 14 11 9 10 11 12 18 23 24 23 24 24 25 26 28 31 36 39 39 37 35 32 28 26 27 28 29 29
17 13 18 14 16 11 13 16 16 16 12 17 1 8 6 16 11 11 8 9 10 15 18 21 22 23 22 21 22 24 27 32 36 39 38 35 33 29 26 26 27 28 29 30
11 13 10 11 11 13 10 14 14 17 21 17 23 23 13 19 16 9 9 10 14 18 18 19 21 21 20 19 20 23 27 32 36 37 35 33 30 26 24 26 27 28 30 29
16 16 9 11 15 17 18 8 8 11 8 15 20 20 15 9 10 11 12 12 18 19 18 19 20 20 18 17 19 22 28 32 36 35 33 31 27 24 24 26 27 28 29 29
14 18 12 9 12 17 11 16 17 16 20 13 14 11 1 7 10 11 12 16 20 18 18 20 20 18 17 17 19 23 28 33 35 33 31 28 24 23 24 26 27 28 29 29
6 10 19 20 15 14 18 17 19 20 19 18 17 24 17 8 10 10 14 20 19 18 18 19 18 17 15 17 20 24 29 34 33 32 29 25 22 22 24 25 27 28 30 30
6 7 14 20 18 17 19 20 23 24 24 26 21 21 12 12 12 11 19 20 17 17 17 17 16 15 16 17 21 26 31 33 32 30 28 23 21 22 24 26 28 30 30 30
15 12 15 19 18 13 10 11 14 18 23 23 25 26 16 12 10 15 19 16 15 15 16 16 15 15 16 19 23 28 31 32 30 28 25 21 22 24 25 27 28 30 30 31
6 12 15 18 18 19 21 23 22 22 24 26 29 24 10 11 11 18 15 14 14 15 14 14 14 15 18 20 24 28 31 30 29 27 23 21 22 23 25 26 28 30 31 31
9 7 12 18 17 18 21 21 21 22 24 27 26 26 20 22 22 13 12 13 15 14 13 12 15 17 19 22 25 28 29 29 27 25 20 19 21 23 24 26 28 29 31 28
10 10 11 14 14 16 18 15 16 20 22 21 22 18 19 16 13 11 12 15 19 14 13 15 16 18 20 23 25 28 28 27 25 20 17 19 20 22 24 26 28 30 29 23
10 11 7 11 14 5 11 16 19 20 19 18 14 8 13 11 7 12 17 18 14 14 15 17 17 18 20 23 25 26 25 23 20 16 16 18 19 22 24 26 28 29 27 23
12 9 6 4 11 18 21 11 11 12 15 10 10 15 6 12 22 13 15 14 15 16 17 16 17 18 20 22 24 23 21 19 15 14 15 16 19 21 23 26 26 28 27 23
7 9 8 6 1 5 7 18 25 17 3 8 10 5 3 7 6 15 18 16 18 18 17 17 17 18 20 21 20 20 18 14 13 12 13 16 18 20 23 25 26 29 28 23
12 12 15 18 14 14 21 25 23 10 4 5 2 2 5 5 10 16 17 18 19 18 17 17 17 18 18 18 17 16 13 11 10 10 13 15 17 20 22 23 27 29 27 23
10 10 10 8 7 7 12 9 5 10 12 13 13 19 27 24 11 15 17 19 18 18 17 16 16 17 16 15 15 13 11 8 8 10 12 14 16 19 20 24 26 27 26 22
7 7 6 10 12 14 18 15 6 7 10 11 11 12 12 8 13 15 20 19 18 17 17 16 16 14 14 14 12 10 7 6 7 9 11 13 16 17 20 22 23 25 26 23
11 16 10 13 12 23 28 27 26 22 22 24 21 8 10 13 14 17 19 19 19 18 16 16 14 13 13 12 9 7 5 5 6 8 10 13 15 16 19 20 21 24 25 25
12 14 15 19 23 20 16 18 22 32 32 16 9 14 15 14 21 23 17 16 17 17 16 16 14 12 11 9 7 4 5 5 6 7 11 13 14 16 17 18 20 23 25 27
16 16 16 19 22 25 28 20 12 12 9 9 13 14 15 22 25 16 14 15 16 16 16 14 12 10 8 6 3 5 5 4 5 8 10 11 13 15 16 17 19 21 24 26
Wind_Direction
221 219 226 233 231 252 264 256 257 251 228 217 244 254 258 263 275 236 226 229 246 267 270 273 269 273 279 285 291 300 308 317 325 331 336 336 334 331 330 330 331 333 334 337
230 236 235 240 231 242 247 253 251 220 231 242 260 267 266 253 268 264 230 232 233 266 271 277 271 272 278 284 290 297 307 316 325 330 335 334 331 330 331 331 333 336 338 339
231 263 228 221 227 236 242 246 253 253 242 250 262 279 263 249 249 262 236 234 238 262 271 282 274 272 276 282 289 295 306 316 325 330 334 331 330 331 332 332 333 334 337 338
242 248 243 241 232 236 250 248 245 258 255 286 204 292 278 259 235 239 242 233 237 247 264 281 280 274 275 282 286 295 306 316 325 329 330 329 329 330 332 333 334 336 339 340
236 244 242 235 242 242 246 249 251 259 260 275 262 261 283 241 235 236 237 247 248 251 265 282 283 275 275 280 286 296 307 317 323 327 328 329 330 332 333 334 336 339 340 339
244 241 234 240 235 229 237 255 262 259 264 264 266 241 287 194 206 209 231 258 263 272 282 282 283 278 278 279 287 298 308 316 322 326 327 328 332 333 333 335 338 341 340 338
234 243 240 241 227 236 231 244 259 237 214 253 194 254 254 266 246 253 266 266 284 291 291 285 283 282 278 279 288 298 308 316 322 326 327 330 333 333 335 338 341 341 339 338
233 199 227 232 225 251 238 243 256 289 291 310 173 266 246 243 260 270 248 273 286 306 295 286 284 278 279 281 290 300 308 316 324 326 328 332 333 335 337 340 341 340 339 337
265 256 190 219 228 233 245 236 265 274 274 269 276 278 243 266 264 244 272 273 310 313 300 285 280 278 279 283 289 298 309 320 324 326 330 333 334 336 338 342 341 341 340 336
247 270 241 251 254 248 231 276 255 236 278 275 280 288 273 219 230 252 270 291 314 310 299 286 281 279 278 281 289 300 313 321 324 328 332 333 335 337 342 342 341 342 339 337
244 249 254 236 246 248 240 247 250 269 265 282 288 286 41 184 203 258 266 301 311 304 298 290 280 276 277 282 292 304 316 321 326 330 332 334 335 339 343 343 342 341 339 339
270 252 253 259 251 238 252 262 251 245 272 247 271 281 275 252 239 239 279 309 308 303 294 285 279 274 276 283 295 310 317 324 328 330 332 334 335 342 344 342 343 342 342 341
236 251 264 260 257 269 256 263 258 261 262 271 281 274 284 263 251 255 297 310 307 302 292 284 277 273 276 287 302 312 318 325 328 330 333 334 337 345 344 346 346 344 344 341
245 252 261 275 283 307 271 282 280 262 262 274 276 287 265 256 259 283 306 307 308 300 288 279 275 276 284 294 305 312 321 326 329 331 332 333 344 348 348 348 346 346 344 344
281 268 268 271 277 286 284 280 278 271 265 264 278 281 317 227 258 294 303 309 309 299 287 282 283 285 288 296 306 314 322 327 329 331 332 343 351 350 349 348 348 348 347 346
342 297 285 279 278 282 284 284 280 275 273 272 273 274 255 266 281 289 305 316 316 303 293 293 291 285 292 300 309 318 325 327 331 334 340 350 353 350 350 352 351 349 350 350
323 321 299 286 289 286 286 287 289 286 275 271 278 275 260 267 280 300 318 326 316 300 301 298 289 290 295 306 313 322 326 329 334 338 347 353 352 352 354 354 354 353 352 357
290 300 291 286 294 264 294 304 294 297 297 270 259 248 249 279 316 330 330 307 297 301 301 295 290 294 300 308 316 324 327 333 335 342 354 354 354 356 356 357 358 353 358 1
282 282 289 273 285 291 294 352 332 322 303 280 241 252 265 310 317 321 299 291 301 300 299 295 296 299 304 311 320 325 330 334 337 353 358 355 358 358 358 2 356 358 4 3
263 270 264 267 245 275 356 324 332 320 292 319 259 282 298 1 8 316 309 298 298 299 301 300 300 302 308 315 322 326 331 335 351 2 356 360 360 2 5 0 1 5 5 5
261 271 278 276 266 273 292 289 294 289 308 49 68 332 334 289 325 314 297 299 298 303 302 299 304 307 312 317 323 327 334 349 8 358 2 3 5 8 6 3 9 7 6 7
278 285 278 296 290 277 289 317 292 260 254 267 282 287 282 281 297 296 296 296 300 305 303 302 305 309 313 319 323 332 346 7 9 6 7 8 11 12 6 11 13 10 10 9
276 261 272 291 276 309 292 274 253 241 244 258 277 279 294 270 300 295 297 300 305 310 306 302 305 307 315 319 329 345 4 21 16 14 12 14 19 13 12 18 15 15 16 14
274 282 283 295 292 272 278 272 256 267 264 260 280 286 267 296 293 292 292 305 316 307 301 302 302 307 316 323 343 357 32 42 27 20 21 23 19 16 19 21 19 22 23 25
268 270 290 290 309 311 310 306 290 266 269 265 275 271 279 280 271 294 286 296 306 297 300 297 299 310 319 332 353 36 71 56 37 32 32 27 20 22 24 22 23 26 27 29
268 280 275 293 292 303 304 292 272 268 272 255 265 263 281 269 278 265 282 310 300 295 292 294 298 314 323 341 37 96 94 71 55 46 39 31 26 27 27 25 26 28 30 32
Height
3166 3167 3166 3166 3167 3166 3166 3166 3165 3166 3165 3167 3167 3166 3165 3157 3155 3156 3155 3153 3149 3146 3146 3144 3143 3142 3140 3139 3137 3133 3130 3126 3121 3116 3110 3104 3099 3093 3085 3078 3071 3065 3059 3052
3166 3163 3164 3164 3165 3165 3165 3165 3164 3164 3164 3164 3164 3161 3160 3157 3150 3151 3154 3152 3148 3142 3140 3139 3139 3138 3136 3135 3132 3129 3126 3122 3117 3111 3106 3100 3095 3088 3082 3074 3066 3060 3054 3048
3162 3162 3160 3161 3163 3163 3163 3162 3162 3164 3162 3160 3159 3154 3149 3152 3149 3145 3147 3150 3146 3140 3136 3134 3134 3133 3132 3130 3128 3126 3122 3118 3114 3108 3102 3097 3090 3083 3077 3070 3063 3057 3052 3045
3159 3159 3158 3160 3161 3162 3160 3159 3161 3161 3161 3157 3155 3149 3148 3146 3146 3143 3141 3142 3141 3138 3134 3130 3129 3128 3126 3125 3124 3122 3118 3114 3109 3105 3099 3093 3087 3080 3072 3066 3059 3053 3047 3041
3157 3155 3157 3158 3159 3159 3159 3157 3158 3158 3157 3155 3152 3151 3140 3140 3142 3142 3139 3137 3136 3135 3131 3128 3125 3123 3121 3121 3120 3118 3115 3111 3106 3101 3096 3089 3082 3075 3068 3062 3056 3049 3043 3038
3154 3153 3155 3156 3154 3155 3154 3156 3156 3154 3153 3148 3143 3144 3140 3136 3138 3137 3137 3134 3133 3131 3128 3125 3121 3119 3117 3117 3116 3114 3111 3107 3103 3097 3091 3084 3078 3071 3065 3059 3053 3046 3041 3035
3150 3151 3150 3151 3152 3152 3153 3155 3150 3146 3142 3139 3138 3140 3139 3135 3134 3133 3133 3131 3130 3129 3126 3122 3118 3116 3114 3113 3113 3111 3108 3104 3099 3093 3086 3080 3073 3067 3061 3055 3049 3043 3038 3032
3142 3146 3145 3145 3149 3150 3150 3151 3148 3141 3136 3134 3137 3135 3132 3132 3131 3130 3130 3129 3128 3126 3122 3119 3116 3113 3111 3110 3110 3108 3104 3100 3095 3089 3082 3076 3070 3063 3058 3052 3046 3040 3035 3030
3141 3141 3142 3143 3146 3148 3146 3148 3147 3144 3141 3139 3135 3129 3128 3127 3127 3127 3127 3126 3125 3122 3119 3116 3113 3110 3108 3108 3107 3105 3101 3097 3091 3085 3078 3072 3066 3061 3056 3049 3044 3037 3032 3028
3141 3141 3141 3140 3142 3142 3143 3145 3145 3142 3138 3131 3124 3120 3117 3122 3122 3124 3124 3123 3121 3118 3115 3112 3110 3107 3106 3106 3105 3102 3098 3093 3088 3081 3075 3069 3063 3058 3052 3047 3041 3035 3030 3025
3139 3141 3141 3138 3138 3140 3140 3140 3141 3140 3135 3129 3124 3123 3122 3121 3121 3120 3120 3120 3117 3114 3111 3109 3106 3105 3104 3103 3102 3099 3095 3090 3084 3078 3072 3066 3061 3056 3049 3044 3039 3033 3027 3022
3137 3136 3135 3135 3134 3135 3135 3135 3136 3135 3130 3127 3127 3123 3121 3119 3118 3119 3117 3116 3114 3111 3108 3106 3104 3103 3102 3101 3099 3096 3092 3086 3080 3075 3069 3064 3058 3052 3047 3042 3037 3032 3025 3019
3133 3134 3133 3132 3133 3131 3130 3132 3131 3130 3130 3126 3126 3122 3117 3118 3117 3117 3116 3114 3111 3109 3106 3104 3102 3101 3100 3099 3097 3093 3088 3083 3077 3071 3066 3061 3056 3050 3046 3042 3037 3031 3024 3018
3131 3132 3133 3130 3128 3130 3129 3129 3128 3128 3127 3125 3121 3120 3115 3114 3115 3114 3112 3110 3108 3106 3103 3101 3100 3099 3098 3097 3094 3089 3085 3080 3075 3069 3064 3059 3054 3051 3046 3041 3035 3028 3022 3015
3129 3129 3130 3129 3129 3128 3126 3125 3125 3124 3123 3122 3117 3117 3116 3112 3111 3109 3109 3108 3106 3104 3101 3099 3098 3097 3095 3093 3091 3086 3082 3077 3072 3067 3064 3059 3054 3050 3044 3039 3033 3027 3020 3014
3128 3128 3127 3126 3126 3125 3122 3122 3121 3120 3118 3117 3115 3113 3109 3109 3109 3107 3106 3104 3102 3101 3100 3099 3097 3095 3093 3090 3087 3084 3079 3074 3070 3066 3062 3057 3052 3048 3043 3039 3032 3026 3019 3013
3128 3128 3126 3123 3123 3121 3119 3118 3117 3115 3113 3113 3111 3110 3106 3105 3105 3105 3104 3102 3101 3099 3098 3096 3094 3092 3090 3088 3084 3080 3077 3073 3069 3065 3061 3056 3051 3047 3043 3038 3032 3026 3020 3013
3126 3127 3125 3122 3121 3119 3117 3115 3112 3110 3109 3109 3109 3106 3103 3104 3104 3103 3103 3101 3099 3098 3096 3094 3091 3089 3087 3085 3083 3077 3074 3070 3068 3063 3059 3055 3051 3047 3041 3037 3031 3027 3019 3013
3122 3124 3122 3122 3120 3116 3115 3111 3110 3108 3106 3106 3107 3103 3103 3102 3100 3101 3099 3099 3098 3096 3093 3091 3089 3086 3085 3082 3079 3076 3072 3069 3065 3061 3058 3054 3051 3046 3042 3036 3033 3026 3019 3014
3119 3120 3121 3119 3118 3116 3113 3109 3108 3106 3106 3102 3103 3103 3103 3101 3102 3102 3100 3099 3096 3094 3091 3088 3086 3085 3082 3080 3076 3073 3070 3067 3063 3060 3057 3055 3051 3047 3041 3038 3033 3025 3019 3015
3117 3117 3117 3115 3113 3111 3111 3108 3107 3109 3109 3101 3101 3101 3101 3100 3100 3099 3099 3097 3094 3091 3089 3087 3084 3081 3079 3077 3073 3070 3068 3065 3062 3060 3058 3054 3051 3046 3043 3040 3033 3027 3021 3016
3116 3116 3116 3115 3113 3111 3105 3106 3107 3105 3101 3100 3099 3099 3096 3095 3098 3099 3097 3094 3092 3089 3086 3085 3083 3080 3077 3073 3070 3068 3066 3063 3061 3060 3058 3055 3051 3047 3045 3039 3034 3029 3023 3018
3115 3115 3114 3116 3114 3109 3104 3104 3103 3101 3098 3097 3094 3094 3096 3095 3096 3095 3095 3092 3090 3087 3084 3083 3081 3078 3074 3071 3068 3066 3064 3062 3062 3060 3059 3056 3052 3050 3046 3041 3037 3032 3026 3020
3111 3108 3109 3109 3108 3102 3100 3100 3098 3096 3093 3091 3089 3092 3095 3094 3092 3091 3091 3089 3087 3085 3082 3081 3079 3076 3072 3070 3067 3065 3063 3063 3062 3061 3059 3056 3054 3052 3047 3044 3040 3035 3030 3024
3109 3104 3105 3102 3100 3098 3097 3092 3090 3089 3087 3086 3089 3091 3090 3090 3088 3087 3087 3085 3084 3082 3080 3078 3076 3072 3071 3069 3066 3064 3063 3063 3063 3061 3059 3057 3056 3053 3049 3046 3042 3038 3033 3027
3103 3102 3101 3099 3096 3094 3089 3086 3084 3082 3083 3084 3087 3088 3086 3085 3084 3084 3082 3081 3081 3080 3078 3076 3074 3070 3068 3067 3065 3064 3064 3064 3064 3062 3061 3059 3057 3054 3052 3049 3045 3041 3036 3031